This is the latest recevied weather packets stored in our database for station/object DJ5CM-10. If no packets are shown the sender has not sent any weather packets the latest 10 day(s).
| Time | Temp. | Humidity | Pressure | Rain* | Wind** | Luminosity | Snow |
|---|---|---|---|---|---|---|---|
| 1777928883 | 11.11° C | 58% | 1012.8 hPa | - | - | - | - |
| 1777927983 | 11.67° C | 57% | 1012.7 hPa | - | - | - | - |
| 1777927083 | 11.67° C | 56% | 1012.7 hPa | - | - | - | - |
| 1777926183 | 12.22° C | 56% | 1012.8 hPa | - | - | - | - |
| 1777925283 | 12.22° C | 55% | 1012.6 hPa | - | - | - | - |
| 1777924383 | 12.78° C | 55% | 1012.5 hPa | - | - | - | - |
| 1777923483 | 13.33° C | 54% | 1012.3 hPa | - | - | - | - |
| 1777922583 | 13.33° C | 54% | 1012.4 hPa | - | - | - | - |
| 1777921682 | 13.89° C | 53% | 1012.4 hPa | - | - | - | - |
| 1777920782 | 14.44° C | 52% | 1012.3 hPa | - | - | - | - |
| 1777919881 | 14.44° C | 52% | 1012.2 hPa | - | - | - | - |
| 1777918981 | 15° C | 51% | 1012 hPa | - | - | - | - |
| 1777918081 | 15.56° C | 50% | 1012.1 hPa | - | - | - | - |
| 1777917181 | 15.56° C | 49% | 1012 hPa | - | - | - | - |
| 1777916281 | 16.11° C | 48% | 1012 hPa | - | - | - | - |
| 1777915381 | 16.67° C | 47% | 1012 hPa | - | - | - | - |
| 1777912681 | 18.33° C | 45% | 1012 hPa | - | - | - | - |
| 1777911781 | 18.89° C | 44% | 1012 hPa | - | - | - | - |
| 1777910880 | 20° C | 43% | 1012 hPa | - | - | - | - |
| 1777909980 | 20.56° C | 42% | 1012.1 hPa | - | - | - | - |
| 1777909080 | 22.22° C | 41% | 1012.2 hPa | - | - | - | - |
| 1777908180 | 23.33° C | 42% | 1012.1 hPa | - | - | - | - |
| 1777907280 | 25° C | 43% | 1012.3 hPa | - | - | - | - |
| 1777906377 | 26.11° C | 45% | 1012.4 hPa | - | - | - | - |
| 1777905477 | 25.56° C | 46% | 1012.6 hPa | - | - | - | - |
* Rain since midnight (hover to see other rain measurements)
** Current wind speed in m/s (hover to see current wind gust speed)